Location: ???????
(55.9142°N, 37.8256°E)
Time: 09:16:08
(UTC+00:00)

SAR-Lupe-1 - Pass Details

Date: 14 April 2024
Orbit: 479 x 482 km, 98.1° (Epoch: 04 May)

Event Time Altitude Azimuth Distance (km) Brightness Sun altitude
Rises 00:21:44 0° 15° (NNE) 2,563 8.8 -15.4°
Reaches altitude 10° 00:23:49 10° 16° (NNE) 1,677 7.8 -15.2°
Maximum altitude 00:27:25 88° 101° (E) 491 4.0 -14.9°
Enters shadow 00:29:27 24° 196° (SSW) 1,029 5.2 -14.7°
